Regional Weather Roundup
Issued by NWS

Home | Current Version | Previous Version | Graphics & Text | Print | Product List | Glossary On
Versions: 1 2 3 4 5 6 7 8 9 10 11 12 13 14 15 16 17 18 19 20 21 22 23 24 25 26 27 28 29 30 31 32 33 34 35 36 37 38 39 40 41 42 43 44 45 46 47 48 49 50
000
ASUS43 KDTX 311110
RWRMI
MICHIGAN HOURLY REGIONAL WEATHER ROUNDUP
NATIONAL WEATHER SERVICE DETROIT/PONTIAC MI
600 AM EST SAT JAN 31 2015

NOTE: "FAIR" INDICATES FEW OR NO CLOUDS BELOW 12,000 FEET WITH NO
SIGNIFICANT WEATHER AND/OR OBSTRUCTION TO VISIBILITY.

MIZ047>049-052>055-059>063-066>070-074>076-081>083-311200-
SOUTHEAST LOWER MICHIGAN

CITY           SKY/WX    TMP DP  RH WIND       PRES   REMARKS
ADRIAN         MOCLDY    14  10  84 S3        30.31F
ALMA           CLOUDY    19  16  85 S5        30.24F
BAD AXE        CLOUDY    11   8  84 S6        30.25F
DETROIT CITY   CLOUDY    19  11  70 SW5       30.32F
DETROIT        MOCLDY    13   9  84 S5        30.33F
FLINT          CLOUDY    19  10  68 S6        30.26F
GROSSE ILE     MOCLDY    18  10  73 CALM      30.32S
HILLSDALE      CLOUDY    18  15  87 CALM      30.26F
HOWELL         PTCLDY    15  11  83 SW7       30.26F

CITY           SKY/WX    TMP DP  RH WIND       PRES   REMARKS
JACKSON        CLOUDY    16  12  84 SW6       30.27F
LAMBERTVILLE   PTCLDY    18  12  79 CALM      30.33F
LANSING        CLOUDY    19  13  77 S9        30.25F
LAPEER         NOT AVBL
MASON          CLOUDY    15  11  85 S3        30.26F
MONROE         PTCLDY    14  10  85 CALM      30.30F
MT. CLEMENS    CLOUDY    13   9  84 SW3       30.29F
PONTIAC        CLOUDY    14   7  73 S5        30.26F
PORT HOPE        N/A      9   2  73 SW7       30.24F
PORT HURON     CLOUDY     3   0  85 CALM      30.31F
TRI CITIES     CLOUDY    19  11  70 S7        30.25F
YPSILANTI      MOCLDY    15   7  70 SW5       30.32S
$$
MIZ043>046-050>051-056>058-064>065-071>073-077>080-311200-
SOUTHWEST LOWER MICHIGAN

CITY           SKY/WX    TMP DP  RH WIND       PRES   REMARKS
BATTLE CREEK   CLOUDY    19  13  77 S8        30.26F
BENTON HARBOR  PTCLDY    18  15  88 S6        30.26F
BIG RAPIDS     CLOUDY    15  13  90 S3        30.18F
COLDWATER      CLOUDY    15  13  91 CALM      30.28S
HOLLAND        CLOUDY    23  18  81 S3        30.25F
GRAND RAPIDS   CLOUDY    20  14  77 S9        30.24F
KALAMAZOO      CLOUDY    18  13  80 S7        30.26F
MARSHALL       CLOUDY    17  13  84 S5        30.26F
MUSKEGON       PTCLDY    27  18  69 SW7       30.23F
$$
MIZ016>042-311200-
NORTHERN LOWER MICHIGAN

CITY           SKY/WX    TMP DP  RH WIND       PRES   REMARKS
ALPENA         LGT SNOW  12   9  87 S5        30.20F FOG
BEAVER ISLAND  LGT SNOW  22  19  88 CALM      30.14F
CADILLAC       MOCLDY    15  11  83 S5        30.13F
CHARLEVOIX     LGT SNOW  18  15  89 S6        30.18F
FRANKFORT      PTSUNNY   19  14  81 SE6       30.16F
GAYLORD        CLOUDY    14  11  87 S7        30.12F
GRAYLING       CLOUDY    14  10  83 CALM      30.16F
HARBOR SPRINGS LGT SNOW  17  14  85 CALM      30.16S
HOUGHTON LAKE  CLOUDY    14   8  77 S6        30.17F
MANISTEE       MOCLDY    14   7  73 E3        30.19F
OSCODA         LGT SNOW  11   8  88 SW5       30.24F
PELLSTON       FLURRIES  13  11  92 SE7       30.15F
TRAVERSE CITY  CLOUDY    20  12  71 VRB3      30.16F
$$
MIZ007>008-015-311200-
EASTERN UPPER MICHIGAN

CITY           SKY/WX    TMP DP  RH WIND       PRES   REMARKS
KINROSS        CLOUDY    12  12 100 S5        30.13F
MACKINAC ISLAN LGT SNOW  15  12  88 S6        30.14F
NEWBERRY       LGT SNOW  14  13  93 SW9       30.10F
S. S. MARIE    LGT SNOW   8   4  83 E5        30.14F FOG
$$
MIZ004>006-011>014-085-311200-
CENTRAL UPPER MICHIGAN

CITY           SKY/WX    TMP DP  RH WIND       PRES   REMARKS
MANISTIQUE     CLOUDY    20  15  82 SW5       30.12F
ESCANABA       CLOUDY    19   9  63 SW5       30.13F
MENOMINEE      CLOUDY    21   9  58 W5        30.13F
SAWYER-GWINN   CLOUDY    15  11  85 SW3       30.07F
$$
MIZ001>003-009>011-084-311200-
WESTERN UPPER MICHIGAN

CITY           SKY/WX    TMP DP  RH WIND       PRES   REMARKS
IRON MOUNTAIN  CLOUDY    18   9  68 CALM      30.07F
HOUGHTON       CLOUDY    16  12  84 SW6       30.03F
COPPER HARBOR    N/A     18  12  77 VRB7      30.05S
IRONWOOD       CLOUDY    21  18  86 W8        30.06R
$$

ABBREVIATIONS USED IN REMARKS
   TC - TEMPERATURE IN CELSIUS
  WCI - WIND CHILL INDEX
   HX - HEAT INDEX
  VSB - VISIBILITY




USA.gov is the U.S. government's official web portal to all federal, state and local government web resources and services.